Weather History for KVGT - April, 2013

Change the Weather History Date:

Friday, April 5, 2013

  Actual Average Record
Temperature  
Mean Temperature 72 °F -  
Max Temperature 82 °F 75 °F 96 °F (1960)
Min Temperature 62 °F 49 °F 30 °F (1958)
Cooling Degree Days 6    
Growing Degree Days 22 (Base 50)    
Moisture  
Dew Point 29 °F    
Average Humidity 21    
Maximum Humidity 37    
Minimum Humidity 11    
Precipitation  
Precipitation 0.00 in - - ()
Sea Level Pressure  
Sea Level Pressure 29.87 in    
Wind  
Wind Speed 9 mph (NW)    
Max Wind Speed 15 mph    
Max Gust Speed 26 mph    
Visibility 10 miles    
Events      
Averages and records for this station are not official NWS values.
T = Trace of Precipitation, MM = Missing Value Source: NWS Daily Summary

Daily Weather History Graph

Daily Weather History Graph

Search for Another Location

Airport or City:

Trip Planner

Search our weather history database for the weather conditions in past years. The results will help you decide how hot, cold, wet, or windy it might be!

Date:

Astronomy

Apr. 05, 2013 Rise Set
Actual Time 6:20 AM PDT 7:06 PM PDT
Civil Twilight 5:54 AM PDT 7:32 PM PDT
Nautical Twilight 5:24 AM PDT 8:03 PM PDT
Astronomical Twilight 4:52 AM PDT 8:35 PM PDT
Moon 3:22 AM PDT (4/5) 2:42 PM PDT (4/5)
Length of Visible Light 13h 37m
Length of Day
12h 45m
Waning Crescent, 22% of the Moon is Illuminated
Apr 5
Waning Crescent
Apr 10
New
Apr 18
First Quarter
Apr 25
Full
May 2
Last Quarter

Hourly Weather History & Observations

Time (PDT) Temp. Dew Point Humidity Pressure Visibility Wind Dir Wind Speed Gust Speed Precip Events Conditions
12:53 AM 70.0 °F 39.0 °F 32% 29.88 in 10.0 mi WSW 9.2 mph 17.3 mph N/A   Clear
1:53 AM 69.1 °F 37.9 °F 32% 29.86 in 10.0 mi WSW 11.5 mph - N/A   Clear
2:53 AM 68.0 °F 34.0 °F 28% 29.86 in 10.0 mi SW 13.8 mph - N/A   Clear
3:53 AM 66.0 °F 34.0 °F 30% 29.84 in 10.0 mi SSW 12.7 mph 26.5 mph N/A   Clear
4:53 AM 63.0 °F 35.1 °F 35% 29.86 in 10.0 mi Calm Calm - N/A   Clear
5:53 AM 62.1 °F 35.1 °F 37% 29.87 in 10.0 mi NNW 10.4 mph - N/A   Clear
6:53 AM 62.1 °F 35.1 °F 37% 29.90 in 10.0 mi North 8.1 mph - N/A   Clear
7:53 AM 64.0 °F 35.1 °F 34% 29.91 in 10.0 mi Calm Calm - N/A   Clear
8:53 AM 69.1 °F 33.1 °F 26% 29.93 in 10.0 mi NNW 8.1 mph - N/A   Clear
9:53 AM 73.0 °F 32.0 °F 22% 29.93 in 10.0 mi NNW 15.0 mph - N/A   Clear
10:53 AM 75.0 °F 30.9 °F 20% 29.92 in 10.0 mi North 15.0 mph 23.0 mph N/A   Clear
11:53 AM 77.0 °F 30.9 °F 19% 29.91 in 10.0 mi North 13.8 mph 23.0 mph N/A   Clear
12:53 PM 80.1 °F 25.0 °F 13% 29.90 in 10.0 mi North 11.5 mph 23.0 mph N/A   Clear
1:53 PM 81.0 °F 23.0 °F 12% 29.87 in 10.0 mi NNW 12.7 mph - N/A   Clear
2:53 PM 81.0 °F 21.9 °F 11% 29.84 in 10.0 mi NW 10.4 mph - N/A   Clear
3:53 PM 81.0 °F 23.0 °F 12% 29.82 in 10.0 mi SW 11.5 mph - N/A   Clear
4:53 PM 81.0 °F 24.1 °F 12% 29.83 in 10.0 mi Calm Calm - N/A   Clear
5:53 PM 80.1 °F 28.0 °F 15% 29.83 in 10.0 mi Calm Calm - N/A   Clear
6:53 PM 79.0 °F 28.9 °F 16% 29.83 in 10.0 mi Calm Calm - N/A   Clear
7:53 PM 78.1 °F 21.9 °F 12% 29.83 in 10.0 mi North 3.5 mph - N/A   Clear
8:53 PM 75.0 °F 19.9 °F 13% 29.85 in 10.0 mi NNW 5.8 mph - N/A   Clear
9:53 PM 73.0 °F 19.9 °F 14% 29.86 in 10.0 mi NNW 6.9 mph - N/A   Clear
10:53 PM 71.1 °F 21.9 °F 16% 29.86 in 10.0 mi NW 8.1 mph - N/A   Clear
11:53 PM 69.1 °F 23.0 °F 18% 29.85 in 10.0 mi SW 5.8 mph - N/A   Clear